CW0736 Weather Reports


Display with metric or nautical units.
time (UTC)temp
F
wind
direction
speed
MPH
gust
MPH
rain 1hr
in
rain 24hr
in
rain mn
in
humidity
%
barometer
mb
20260504031552 53 230 3.0 7.0 0.00 0.00 0.00 57 1009.8
20260504030058 53 240 3.0 9.0 0.00 0.00 0.00 59 1009.9
20260504024504 52 257 2.0 9.0 0.00 0.00 0.00 59 1010.0
20260504023004 53 241 2.0 7.0 0.00 0.00 0.00 59 1010.0
20260504021554 53 237 3.0 10.0 0.00 0.00 0.00 59 1010.1
20260504020051 53 232 2.0 4.0 0.00 0.00 0.00 61 1010.2
20260504014544 52 241 2.0 5.0 0.00 0.00 0.00 62 1010.1
20260504013048 52 259 3.0 12.0 0.00 0.00 0.00 66 1010.2
20260504011542 50 281 2.0 4.0 0.00 0.00 0.00 71 1010.3
20260504010058 49 254 1.0 3.0 0.00 0.00 0.00 79 1010.3
20260504004556 49 267 0.0 1.0 0.00 0.00 0.00 82 1010.7
20260504003015 49 267 0.0 1.0 0.00 0.00 0.00 82 1010.8
20260504001510 49 267 0.0 1.0 0.00 0.00 0.00 82 1010.9
20260504000012 49 267 0.0 2.0 0.00 0.00 0.00 81 1011.1
20260503234600 50 267 0.0 2.0 0.00 0.00 0.00 80 1010.9
20260503234503 50 267 0.0 2.0 0.00 0.00 0.00 80 1011.0
20260503233102 50 267 0.0 2.0 0.00 0.00 0.00 78 1010.9
20260503231600 50 263 0.0 4.0 0.00 0.00 0.00 75 1010.9
20260503231503 51 263 0.0 6.0 0.00 0.00 0.00 74 1010.9
20260503230002 52 246 2.0 7.0 0.00 0.00 0.00 66 1011.0
20260503224524 53 279 3.0 9.0 0.00 0.00 0.00 61 1010.7
20260503223043 53 252 3.0 10.0 0.00 0.00 0.00 60 1010.5
20260503221546 53 276 5.0 10.0 0.00 0.00 0.00 58 1010.5
20260503220032 53 296 4.0 13.0 0.00 0.00 0.00 56 1010.5
20260503214525 54 279 3.0 9.0 0.00 0.00 0.00 54 1010.5
20260503213041 54 252 4.0 8.0 0.00 0.00 0.00 54 1010.1
20260503211538 54 275 3.0 9.0 0.00 0.00 0.00 53 1010.5
20260503210034 54 251 2.0 9.0 0.00 0.00 0.00 53 1010.7
20260503204532 55 247 3.0 12.0 0.00 0.00 0.00 53 1010.5
20260503203037 55 271 2.0 9.0 0.00 0.00 0.00 51 1010.5
20260503201516 56 290 3.0 9.0 0.00 0.00 0.00 50 1010.8
20260503200019 56 235 2.0 9.0 0.00 0.00 0.00 48 1010.8
20260503194539 56 236 3.0 10.0 0.00 0.00 0.00 46 1011.0
20260503193026 56 258 4.0 8.0 0.00 0.00 0.00 44 1011.4
20260503191513 56 268 3.0 10.0 0.00 0.00 0.00 45 1011.6
20260503190037 55 286 3.0 9.0 0.00 0.00 0.00 45 1011.9
20260503184523 55 278 3.0 9.0 0.00 0.00 0.00 46 1012.2
20260503183013 53 270 3.0 10.0 0.00 0.00 0.00 47 1012.5
20260503181531 54 254 4.0 11.0 0.00 0.00 0.00 44 1012.6
20260503180037 54 250 3.0 8.0 0.00 0.00 0.00 46 1012.8
20260503174517 54 244 2.0 9.0 0.00 0.00 0.00 46 1012.9
20260503173017 54 243 5.0 10.0 0.00 0.00 0.00 48 1013.1
20260503171521 53 272 2.0 7.0 0.00 0.00 0.00 54 1013.0
20260503150112 51 288 2.0 5.0 0.00 0.00 0.00 61 1014.5
20260503140113 49 250 2.0 4.0 0.00 0.00 0.00 63 1015.0
20260503081546 36 259 1.0 3.0 0.00 0.00 0.00 82 1015.4
20260503081059 36 256 1.0 3.0 0.00 0.00 0.00 82 1015.4
20260503081009 36 256 1.0 3.0 0.00 0.00 0.00 82 1015.4
20260503080548 36 259 0.0 2.0 0.00 0.00 0.00 82 1015.4
20260503072517 37 253 1.0 3.0 0.00 0.00 0.00 81 1015.3
20260503072034 37 250 1.0 3.0 0.00 0.00 0.00 81 1015.4
20260503071517 37 247 1.0 3.0 0.00 0.00 0.00 81 1015.3
20260503071035 37 243 1.0 3.0 0.00 0.00 0.00 81 1015.4
20260503070553 37 247 1.0 3.0 0.00 0.00 0.00 81 1015.4
20260503055009 38 266 1.0 3.0 0.00 0.00 0.00 77 1015.8
20260503054538 38 246 1.0 3.0 0.00 0.00 0.00 76 1015.7
20260503054049 38 245 0.0 2.0 0.00 0.00 0.00 76 1015.7
20260503053509 39 245 0.0 2.0 0.00 0.00 0.00 76 1015.8
20260503053033 39 245 0.0 2.0 0.00 0.00 0.00 76 1015.8
20260503052551 39 245 1.0 2.0 0.00 0.00 0.00 76 1015.9
20260503052013 39 241 0.0 3.0 0.00 0.00 0.00 75 1016.0
20260503051536 39 241 0.0 3.0 0.00 0.00 0.00 75 1016.0
20260503051048 39 241 0.0 2.0 0.00 0.00 0.00 75 1016.1
20260503050503 39 255 1.0 3.0 0.00 0.00 0.00 75 1016.1
20260503050031 39 255 1.0 3.0 0.00 0.00 0.00 75 1016.1
20260503045545 40 274 0.0 2.0 0.00 0.00 0.00 75 1016.1
20260503045007 40 275 0.0 2.0 0.00 0.00 0.00 75 1016.1
20260503044519 40 275 0.0 4.0 0.00 0.00 0.00 75 1016.1
20260503044046 40 273 1.0 4.0 0.00 0.00 0.00 75 1016.2
20260503043505 40 246 1.0 3.0 0.00 0.00 0.00 75 1016.2
20260503043031 40 261 1.0 2.0 0.00 0.00 0.00 75 1016.3
20260503042539 40 261 0.0 2.0 0.00 0.00 0.00 75 1016.2
20260503042051 40 259 0.0 2.0 0.00 0.00 0.00 74 1016.2
20260503041507 40 251 0.0 3.0 0.00 0.00 0.00 74 1016.3
20260503041030 40 251 0.0 3.0 0.00 0.00 0.00 74 1016.3
20260503040545 41 259 1.0 3.0 0.00 0.00 0.00 73 1016.3
20260503040100 41 240 0.0 3.0 0.00 0.00 0.00 73 1016.5
20260503035540 41 240 1.0 3.0 0.00 0.00 0.00 72 1016.4
20260503035102 41 244 1.0 2.0 0.00 0.00 0.00 72 1016.3
20260503034527 41 243 0.0 3.0 0.00 0.00 0.00 71 1016.4
20260503034041 41 243 0.0 3.0 0.00 0.00 0.00 70 1016.3
20260503033526 41 259 0.0 2.0 0.00 0.00 0.00 69 1016.5
20260503033047 41 259 0.0 2.0 0.00 0.00 0.00 68 1016.4
20260503032504 41 259 0.0 2.0 0.00 0.00 0.00 68 1016.4